Location: St. Louis
(38.6270°N, 90.1994°W)
Time: 20:35:35
(UTC-06:00)

Vanguard 1 - Pass Details

Date: 07 December 2021
Orbit: 652 x 3830 km, 34.2° (Epoch: 21 January)

Event Time Altitude Azimuth Distance (km) Brightness Sun altitude
Rises 23:45:50 0° 247° (WSW) 6,901 14.3 -73.9°
Enters shadow 23:46:48 - 247° (WSW) 6,726 14.3 -74.0°
Exits shadow 00:27:51 25° 90° (E) 5,302 13.6 -72.3°
Drops below altitude 10° 00:33:20 10° 87° (E) 6,181 14.2 -71.8°
Sets 00:37:24 0° 86° (E) 6,900 14.5 -71.3°
